When you browse on this site, cookies collect data to enhance your experience and personalize the content and advertising you see.
Visit our Privacy Policy to learn more. By continuing to use the site, you agree to this use of cookies and data.
  • en France
  • Liste des pays
  • À 7 jours
  • Température de l'eau
  • Carte météo
  • Widgets météo
  • user-avatar
    Se connecter

    Météo par heure à Galata

    Ce jour, 16 Septembre, Lundi

    Heure Température Précipitation Vent Pression Humidité
    00:00 +15°C° 0 mm 1 m/s 760 mmHg 77%
    01:00 +15°C° 0 mm 1 m/s 760 mmHg 78%
    02:00 +15°C° 0 mm 2 m/s 759 mmHg 82%
    03:00 +15°C° 0 mm 2 m/s 759 mmHg 82%
    04:00 +14°C° 0 mm 1 m/s 759 mmHg 82%
    05:00 +14°C° 0 mm 1 m/s 758 mmHg 82%
    06:00 +16°C° 0 mm 1 m/s 758 mmHg 73%
    07:00 +19°C° 0 mm 1 m/s 758 mmHg 64%
    08:00 +22°C° 0 mm 1 m/s 758 mmHg 53%
    09:00 +23°C° 0 mm 1 m/s 758 mmHg 47%
    10:00 +25°C° 0 mm 2 m/s 757 mmHg 40%
    11:00 +27°C° 0 mm 2 m/s 757 mmHg 34%
    12:00 +28°C° 0 mm 3 m/s 756 mmHg 33%
    13:00 +29°C° 0 mm 3 m/s 756 mmHg 32%
    14:00 +29°C° 0 mm 4 m/s 755 mmHg 31%
    15:00 +28°C° 0 mm 4 m/s 755 mmHg 35%
    16:00 +27°C° 0 mm 4 m/s 755 mmHg 38%
    17:00 +26°C° 0 mm 4 m/s 754 mmHg 42%
    18:00 +23°C° 0 mm 4 m/s 754 mmHg 52%
    19:00 +21°C° 0 mm 4 m/s 755 mmHg 62%
    20:00 +18°C° 0 mm 3 m/s 755 mmHg 72%
    21:00 +18°C° 0 mm 3 m/s 754 mmHg 73%
    22:00 +18°C° 0 mm 3 m/s 754 mmHg 74%
    23:00 +17°C° 0 mm 3 m/s 754 mmHg 75%

    Demain, 17 Septembre, Mardi

    Heure Température Précipitation Vent Pression Humidité
    00:00 +17°C° 0 mm 3 m/s 754 mmHg 72%
    01:00 +17°C° 0 mm 3 m/s 754 mmHg 68%
    02:00 +17°C° 0 mm 2 m/s 754 mmHg 65%
    03:00 +17°C° 0 mm 2 m/s 754 mmHg 63%
    04:00 +17°C° 0 mm 2 m/s 753 mmHg 61%
    05:00 +17°C° 0 mm 2 m/s 753 mmHg 58%
    06:00 +19°C° 0 mm 2 m/s 753 mmHg 50%
    07:00 +21°C° 0 mm 2 m/s 754 mmHg 42%
    08:00 +24°C° 0 mm 2 m/s 754 mmHg 35%
    09:00 +27°C° 0 mm 2 m/s 754 mmHg 30%
    10:00 +29°C° 0 mm 3 m/s 754 mmHg 26%
    11:00 +33°C° 0 mm 3 m/s 754 mmHg 21%
    12:00 +34°C° 0 mm 3 m/s 753 mmHg 20%
    13:00 +34°C° 0 mm 4 m/s 753 mmHg 20%
    14:00 +35°C° 0 mm 5 m/s 752 mmHg 19%
    15:00 +34°C° 0 mm 4 m/s 752 mmHg 21%
    16:00 +33°C° 0 mm 4 m/s 752 mmHg 24%
    17:00 +32°C° 0 mm 4 m/s 751 mmHg 26%
    18:00 +29°C° 0 mm 4 m/s 751 mmHg 34%
    19:00 +26°C° 0 mm 3 m/s 752 mmHg 42%
    20:00 +22°C° 0 mm 3 m/s 752 mmHg 50%
    21:00 +23°C° 0 mm 2 m/s 752 mmHg 47%
    22:00 +23°C° 0 mm 2 m/s 752 mmHg 44%
    23:00 +23°C° 0 mm 2 m/s 752 mmHg 42%

    Après-demain, 18 Septembre, Mercredi

    Heure Température Précipitation Vent Pression Humidité
    00:00 +23°C° 0 mm 2 m/s 752 mmHg 40%
    01:00 +23°C° 0 mm 2 m/s 751 mmHg 39%
    02:00 +22°C° 0 mm 3 m/s 751 mmHg 37%
    03:00 +22°C° 0 mm 3 m/s 751 mmHg 38%
    04:00 +22°C° 0 mm 3 m/s 751 mmHg 39%
    05:00 +21°C° 0 mm 3 m/s 751 mmHg 40%
    06:00 +24°C° 0 mm 3 m/s 751 mmHg 37%
    07:00 +26°C° 0 mm 3 m/s 751 mmHg 34%
    08:00 +28°C° 0 mm 3 m/s 752 mmHg 31%
    09:00 +29°C° 0 mm 3 m/s 752 mmHg 28%
    10:00 +32°C° 0 mm 4 m/s 752 mmHg 25%
    11:00 +34°C° 0 mm 4 m/s 752 mmHg 21%
    12:00 +33°C° 0 mm 5 m/s 753 mmHg 26%
    13:00 +32°C° 0 mm 7 m/s 753 mmHg 31%
    14:00 +31°C° 0 mm 9 m/s 753 mmHg 36%
    15:00 +28°C° 0 mm 9 m/s 754 mmHg 39%
    16:00 +26°C° 0 mm 9 m/s 755 mmHg 42%
    17:00 +23°C° 0 mm 9 m/s 755 mmHg 45%
    18:00 +22°C° 0 mm 8 m/s 756 mmHg 50%
    19:00 +21°C° 0 mm 7 m/s 757 mmHg 54%
    20:00 +19°C° 0 mm 5 m/s 758 mmHg 59%
    21:00 +19°C° 0 mm 5 m/s 758 mmHg 59%
    22:00 +18°C° 0 mm 4 m/s 758 mmHg 59%
    23:00 +18°C° 0 mm 3 m/s 759 mmHg 59%

    19 Septembre, Jeudi

    Heure Température Précipitation Vent Pression Humidité
    00:00 +17°C° 0 mm 3 m/s 759 mmHg 59%
    01:00 +17°C° 0 mm 3 m/s 759 mmHg 60%
    02:00 +16°C° 0 mm 3 m/s 759 mmHg 61%
    03:00 +16°C° 0 mm 3 m/s 759 mmHg 62%
    04:00 +16°C° 0 mm 3 m/s 759 mmHg 63%
    05:00 +14°C° 0 mm 3 m/s 759 mmHg 64%
    06:00 +16°C° 0 mm 3 m/s 759 mmHg 62%
    07:00 +17°C° 0 mm 3 m/s 759 mmHg 59%
    08:00 +19°C° 0 mm 3 m/s 759 mmHg 57%
    09:00 +19°C° 0 mm 4 m/s 760 mmHg 57%
    10:00 +20°C° 0 mm 4 m/s 760 mmHg 57%
    11:00 +20°C° 0 mm 4 m/s 760 mmHg 57%
    12:00 +21°C° 0 mm 4 m/s 759 mmHg 56%
    13:00 +21°C° 0 mm 4 m/s 759 mmHg 55%
    14:00 +21°C° 0 mm 4 m/s 759 mmHg 54%
    15:00 +21°C° 0 mm 4 m/s 758 mmHg 56%
    16:00 +21°C° 0 mm 4 m/s 758 mmHg 58%
    17:00 +20°C° 0 mm 4 m/s 758 mmHg 60%
    18:00 +19°C° 0 mm 4 m/s 758 mmHg 64%
    19:00 +18°C° 0 mm 3 m/s 758 mmHg 69%
    20:00 +17°C° 0 mm 3 m/s 758 mmHg 73%
    21:00 +17°C° 0 mm 3 m/s 758 mmHg 74%
    22:00 +17°C° 0 mm 2 m/s 758 mmHg 74%
    23:00 +17°C° 0 mm 2 m/s 758 mmHg 74%

    20 Septembre, Vendredi

    Heure Température Précipitation Vent Pression Humidité
    00:00 +17°C° 0.1 mm 2 m/s 758 mmHg 73%
    01:00 +17°C° 0.1 mm 2 m/s 758 mmHg 72%
    02:00 +17°C° 0.1 mm 2 m/s 758 mmHg 72%
    03:00 +16°C° 0.2 mm 3 m/s 758 mmHg 70%
    04:00 +14°C° 0.2 mm 4 m/s 758 mmHg 69%
    05:00 +13°C° 0.2 mm 5 m/s 758 mmHg 68%
    06:00 +14°C° 0 mm 6 m/s 758 mmHg 63%
    07:00 +14°C° 0 mm 6 m/s 758 mmHg 59%
    08:00 +14°C° 0 mm 6 m/s 758 mmHg 54%
    09:00 +16°C° 0 mm 6 m/s 758 mmHg 47%
    10:00 +19°C° 0 mm 6 m/s 758 mmHg 40%
    11:00 +21°C° 0 mm 6 m/s 758 mmHg 33%
    12:00 +21°C° 0 mm 6 m/s 758 mmHg 30%
    13:00 +22°C° 0 mm 6 m/s 758 mmHg 27%
    14:00 +22°C° 0 mm 6 m/s 758 mmHg 24%
    15:00 +22°C° 0 mm 5 m/s 758 mmHg 24%
    16:00 +21°C° 0 mm 5 m/s 758 mmHg 25%
    17:00 +21°C° 0 mm 5 m/s 758 mmHg 25%
    18:00 +17°C° 0 mm 5 m/s 759 mmHg 30%
    19:00 +15°C° 0 mm 4 m/s 759 mmHg 34%
    20:00 +13°C° 0 mm 4 m/s 760 mmHg 38%
    21:00 +12°C° 0 mm 4 m/s 760 mmHg 41%
    22:00 +12°C° 0 mm 5 m/s 761 mmHg 44%
    23:00 +10°C° 0 mm 5 m/s 761 mmHg 46%

    21 Septembre, Samedi

    Heure Température Précipitation Vent Pression Humidité
    00:00 +10°C° 0 mm 5 m/s 761 mmHg 47%
    01:00 +9°C° 0 mm 5 m/s 761 mmHg 48%
    02:00 +8°C° 0 mm 5 m/s 762 mmHg 49%
    03:00 +8°C° 0 mm 5 m/s 762 mmHg 50%
    04:00 +7°C° 0 mm 5 m/s 762 mmHg 51%
    05:00 +7°C° 0 mm 5 m/s 762 mmHg 53%
    06:00 +8°C° 0 mm 6 m/s 763 mmHg 48%
    07:00 +10°C° 0 mm 6 m/s 763 mmHg 44%
    08:00 +13°C° 0 mm 6 m/s 764 mmHg 40%
    09:00 +14°C° 0 mm 6 m/s 764 mmHg 36%
    10:00 +16°C° 0 mm 6 m/s 764 mmHg 32%
    11:00 +17°C° 0 mm 6 m/s 764 mmHg 28%
    12:00 +19°C° 0 mm 5 m/s 764 mmHg 26%
    13:00 +19°C° 0 mm 5 m/s 764 mmHg 24%
    14:00 +20°C° 0 mm 5 m/s 763 mmHg 23%
    15:00 +19°C° 0 mm 5 m/s 763 mmHg 23%
    16:00 +19°C° 0 mm 5 m/s 763 mmHg 23%
    17:00 +19°C° 0 mm 4 m/s 763 mmHg 23%
    18:00 +17°C° 0 mm 4 m/s 763 mmHg 27%
    19:00 +14°C° 0 mm 4 m/s 763 mmHg 30%
    20:00 +12°C° 0 mm 4 m/s 764 mmHg 34%
    21:00 +11°C° 0 mm 4 m/s 764 mmHg 35%
    22:00 +10°C° 0 mm 3 m/s 764 mmHg 37%
    23:00 +10°C° 0 mm 3 m/s 764 mmHg 38%
    Voir plus